SPWIW EPKK-EPWA

Flight info

Callsign SPWIW
Flight time N/A
Altitude 23000
Route POBOK M985 KOTEK M866 LOGDA
Aircraft SF50/L-SDGRWY/L

Departure

Time N/A
Airport Kraków John Paul II International Airport (EPKK)

Arrival

Time 2026-05-07 22:20
Airport Warsaw Chopin Airport (EPWA)
Time Latitude Longitude Altitude Speed Heading
2026-05-07 22:14 52.00848 21.10413 2156 ft 129 kts 328°
2026-05-07 22:14 52.01646 21.09691 1994 ft 131 kts 330°
2026-05-07 22:14 52.02457 21.08981 1869 ft 126 kts 330°
2026-05-07 22:14 52.03179 21.08356 1890 ft 112 kts 331°
2026-05-07 22:15 52.03864 21.07790 1823 ft 108 kts 331°
2026-05-07 22:15 52.04571 21.07181 1600 ft 119 kts 329°
2026-05-07 22:15 52.05288 21.06558 1508 ft 115 kts 330°
2026-05-07 22:15 52.05972 21.05986 1545 ft 107 kts 332°
2026-05-07 22:16 52.06649 21.05433 1487 ft 109 kts 330°
2026-05-07 22:16 52.07341 21.04815 1499 ft 115 kts 329°
2026-05-07 22:16 52.08060 21.04202 1558 ft 119 kts 332°
2026-05-07 22:16 52.08817 21.03574 1609 ft 122 kts 330°
2026-05-07 22:17 52.09513 21.02944 1790 ft 99 kts 329°
2026-05-07 22:17 52.10115 21.02412 1705 ft 97 kts 330°
2026-05-07 22:17 52.10713 21.01897 1600 ft 96 kts 330°
2026-05-07 22:17 52.11295 21.01350 1479 ft 98 kts 328°
2026-05-07 22:18 52.11878 21.00809 1347 ft 95 kts 328°
2026-05-07 22:18 52.13056 20.99732 987 ft 96 kts 331°
2026-05-07 22:18 52.13656 20.99231 797 ft 98 kts 332°
2026-05-07 22:19 52.14249 20.98735 666 ft 95 kts 332°
2026-05-07 22:19 52.14828 20.98237 525 ft 93 kts 330°
2026-05-07 22:19 52.15400 20.97735 393 ft 92 kts 331°
2026-05-07 22:19 52.15926 20.97282 336 ft 76 kts 330°
2026-05-07 22:20 52.16324 20.96923 332 ft 47 kts 331°
2026-05-07 22:20 52.16607 20.96682 327 ft 43 kts 330°
2026-05-07 22:20 52.16843 20.96491 326 ft 33 kts 329°
2026-05-07 22:20 52.17019 20.96322 330 ft 27 kts 331°
2026-05-07 22:21 52.17215 20.96150 335 ft 34 kts 336°
2026-05-07 22:21 52.17438 20.96063 334 ft 30 kts 359°
2026-05-07 22:21 52.17559 20.96081 334 ft 10 kts 13°
2026-05-07 22:21 52.17610 20.96117 333 ft 7 kts 31°
2026-05-07 22:22 52.17633 20.96136 333 ft 0 kts 17°
2026-05-07 22:22 52.17660 20.96146 333 ft 7 kts
2026-05-07 22:22 52.17717 20.96114 333 ft 8 kts 358°
2026-05-07 22:22 52.17740 20.96158 333 ft 3 kts 59°
2026-05-07 22:23 52.17748 20.96181 332 ft 2 kts 64°
2026-05-07 22:23 52.17762 20.96225 331 ft 4 kts 62°
2026-05-07 22:23 52.17763 20.96228 331 ft 0 kts 66°